Torrington, WY

4:39 PM MDT on October 01, 2016 (GMT -0600)
Torrington Municipal

Weather History for KTOR - September, 2013

Change the Weather History Date:

Saturday, September 14, 2013

  Actual Average Record
Temperature  
Mean Temperature 68 °F 62 °F  
Max Temperature 82 °F 78 °F 93 °F (2015)
Min Temperature 54 °F 45 °F 34 °F (2005)
Degree Days  
Heating Degree Days 0 5  
Month to date heating degree days 9 45  
Since 1 July heating degree days 11 67  
Cooling Degree Days 3 1  
Month to date cooling degree days 109 36  
Year to date cooling degree days 882 669  
Growing Degree Days 18 (Base 50)    
Moisture  
Dew Point 57 °F    
Average Humidity 71    
Maximum Humidity 100    
Minimum Humidity 42    
Precipitation  
Precipitation 0.01 in 0.05 in 0.47 in (2016)
Month to date precipitation 1.58 0.64  
Year to date precipitation 8.39 11.60  
Sea Level Pressure  
Sea Level Pressure 29.83 in    
Wind  
Wind Speed 6 mph (SSE)    
Max Wind Speed 25 mph    
Max Gust Speed 30 mph    
Visibility 10 miles    
Events Rain    
T = Trace of Precipitation, MM = Missing Value Source: NWS Daily Summary

Daily Weather History Graph

Daily Weather History Graph

Search for Another Location

Airport or City:

Trip Planner

Search our weather history database for the weather conditions in past years. The results will help you decide how hot, cold, wet, or windy it might be!

Date:

Astronomy

Sep. 14, 2013 Rise Set
Actual Time 6:35 AM MDT 7:07 PM MDT
Civil Twilight 6:07 AM MDT 7:35 PM MDT
Nautical Twilight 5:34 AM MDT 8:08 PM MDT
Astronomical Twilight 5:00 AM MDT 8:42 PM MDT
Moon 3:54 PM MDT (9/14) 1:06 AM MDT (9/14)
Length of Visible Light 13h 27m
Length of Day
12h 31m
Waxing Gibbous, 73% of the Moon is Illuminated
Sep 14
Waxing Gibbous
Sep 19
Full
Sep 26
Last Quarter
Oct 4
New
Oct 11
First Quarter

Hourly Weather History & Observations

Time (MDT) Temp. Heat Index Dew Point Humidity Pressure Visibility Wind Dir Wind Speed Gust Speed Precip Events Conditions
12:08 AM 60.8 °F - 60.8 °F 100% 29.92 in 7.0 mi West 9.2 mph 19.6 mph 0.00 in Rain Light Rain
12:17 AM 60.8 °F - 59.0 °F 94% 29.91 in 10.0 mi West 4.6 mph - 0.00 in Rain Light Rain
12:28 AM 60.8 °F - 59.0 °F 94% 29.91 in 10.0 mi SSE 6.9 mph - 0.00 in   Mostly Cloudy
12:40 AM 60.8 °F - 59.0 °F 94% 29.91 in 10.0 mi South 4.6 mph - 0.00 in   Partly Cloudy
12:53 AM 60.1 °F - 59.0 °F 96% 29.84 in 9.0 mi WSW 4.6 mph - 0.00 in   Clear
1:53 AM 60.1 °F - 57.0 °F 90% 29.81 in 10.0 mi SSW 3.5 mph - N/A   Clear
2:53 AM 57.9 °F - 55.0 °F 90% 29.83 in 10.0 mi SSE 6.9 mph - N/A   Clear
3:53 AM 57.0 °F - 55.0 °F 93% 29.83 in 10.0 mi SE 6.9 mph - N/A   Clear
4:53 AM 54.0 °F - 53.1 °F 97% 29.83 in 10.0 mi ESE 5.8 mph - 0.01 in   Clear
5:53 AM 55.0 °F - 54.0 °F 96% 29.83 in 10.0 mi SE 4.6 mph - N/A   Clear
6:53 AM 55.9 °F - 54.0 °F 93% 29.82 in 10.0 mi ESE 5.8 mph - N/A   Clear
7:53 AM 59.0 °F - 55.9 °F 90% 29.82 in 10.0 mi SSE 3.5 mph - N/A   Clear
8:53 AM 61.0 °F - 57.0 °F 87% 29.82 in 10.0 mi Calm Calm - N/A   Clear
9:53 AM 64.9 °F - 57.9 °F 78% 29.81 in 10.0 mi WNW 4.6 mph - N/A   Clear
10:53 AM 66.9 °F - 59.0 °F 76% 29.82 in 10.0 mi West 3.5 mph - N/A   Clear
11:53 AM 71.1 °F - 60.1 °F 68% 29.79 in 10.0 mi Variable 4.6 mph - N/A   Clear
12:53 PM 75.9 °F - 59.0 °F 56% 29.78 in 10.0 mi SSW 5.8 mph - N/A   Clear
1:53 PM 77.0 °F - 57.0 °F 50% 29.76 in 10.0 mi Calm Calm - N/A   Clear
2:53 PM 79.0 °F - 55.0 °F 44% 29.75 in 10.0 mi Calm Calm - N/A   Clear
3:53 PM 81.0 °F 80.7 °F 55.0 °F 41% 29.74 in 10.0 mi Variable 3.5 mph - N/A   Mostly Cloudy
4:53 PM 77.0 °F - 55.9 °F 48% 29.76 in 10.0 mi NNW 4.6 mph - N/A   Scattered Clouds
5:53 PM 73.9 °F - 55.9 °F 53% 29.78 in 10.0 mi NNW 6.9 mph - N/A   Scattered Clouds
6:53 PM 72.0 °F - 55.0 °F 55% 29.81 in 10.0 mi North 10.4 mph - 0.00 in   Clear
7:53 PM 69.1 °F - 55.9 °F 63% 29.83 in 10.0 mi East 4.6 mph - N/A   Mostly Cloudy
8:53 PM 64.9 °F - 59.0 °F 81% 29.86 in 10.0 mi SSE 5.8 mph - N/A   Overcast
9:53 PM 64.9 °F - 57.0 °F 75% 29.90 in 10.0 mi NE 18.4 mph 21.9 mph N/A   Overcast
10:53 PM 64.0 °F - 57.0 °F 78% 29.92 in 10.0 mi ENE 9.2 mph - N/A   Overcast
11:53 PM 63.0 °F - 57.0 °F 81% 29.93 in 10.0 mi East 4.6 mph - N/A   Overcast